Date_and_time,latitude,longitude,wind_speed,RelWindDirFrom,WindDirFrom,air_pressure,air_temperature,relative_humidity,Temp,platform_speed_wrt_ground,air_pressure_at_mean_sea_level,platform_orientation
2019-09-14 23:40,50.63046,-96.980765,9.2,11.0,163,983.97,16.7,64,14.92,0.0,1010.08,305.3
2019-09-14 23:50,50.63046,-96.9807666666667,8.1,9.6,163,983.98,16.7,65,14.93,0.0,1010.09,305.3
2019-09-15 00:00,50.63046,-96.98077,6.8,8.2,158,983.94,16.5,67,14.92,0.0,1010.06,0.0
2019-09-15 00:10,50.6304666666667,-96.9807716666667,7.8,9.5,157,983.95,16.3,70,14.90,0.0,1010.09,0.0
2019-09-15 00:20,50.6304716666667,-96.9807716666667,7.6,9.3,161,984.04,16.1,73,14.90,0.0,1010.20,0.0
2019-09-15 00:30,50.6304583333333,-96.9807833333333,7.1,8.5,158,984.10,15.9,77,14.90,0.0,1010.25,0.0
2019-09-15 00:40,50.63046,-96.9807866666667,7.6,9.6,150,984.08,15.7,79,14.90,0.0,1010.24,0.0
2019-09-15 00:50,50.6304533333333,-96.98078,8.2,9.8,146,984.06,15.7,81,14.90,0.0,1010.20,0.0
2019-09-15 01:00,50.630455,-96.9807716666667,7.4,9.9,153,984.10,15.7,82,14.94,0.0,1010.23,167.4
2019-09-15 01:10,50.6304566666667,-96.9807716666667,7.2,9.8,152,984.02,15.7,80,14.96,0.0,1010.16,167.4
2019-09-15 01:20,50.6304583333333,-96.98077,6.9,9.4,154,984.02,15.6,81,14.97,0.0,1010.19,167.4
2019-09-15 01:30,50.6304583333333,-96.9807716666667,7.8,10.7,150,984.07,15.7,80,14.97,0.0,1010.25,167.4
2019-09-15 01:40,50.6304533333333,-96.980775,10.5,13.7,135,983.90,16.1,75,14.99,0.0,1010.06,167.4
2019-09-15 01:50,50.6304716666667,-96.9807766666667,11.6,14.3,126,983.88,16.6,76,15.01,0.0,1010.03,167.4
2019-09-15 02:00,50.63047,-96.9807783333333,10.2,13.6,122,983.94,16.3,83,15.02,0.0,1010.11,360.0
2019-09-15 02:10,50.6304716666667,-96.9807783333333,9.4,10.7,117,983.97,15.9,88,15.03,0.0,1010.17,360.0
2019-09-15 02:20,50.6304716666667,-96.9807783333333,10.5,13.1,113,983.92,15.8,88,15.04,0.0,1010.13,360.0
2019-09-15 02:30,50.63047,-96.9807816666667,11.8,13.7,118,983.92,15.7,86,15.05,0.0,1010.14,360.0
2019-09-15 02:40,50.6304683333333,-96.98078,11.4,13.6,126,983.95,15.6,87,15.05,0.0,1010.18,360.0
2019-09-15 02:50,50.6304666666667,-96.98078,11.2,13.8,126,983.85,15.6,89,15.05,0.0,1010.09,360.0
2019-09-15 03:00,50.6304666666667,-96.98078,12.0,15.3,124,983.76,15.5,89,15.08,0.0,1010.00,310.6
2019-09-15 03:10,50.630465,-96.98078,11.9,15.2,128,983.76,15.4,89,15.08,0.0,1010.00,310.6
2019-09-15 03:20,50.6304666666667,-96.98078,11.4,15.2,135,983.77,15.0,88,15.08,0.0,1010.02,310.6
2019-09-15 03:30,50.6304666666667,-96.98078,12.5,15.8,141,983.77,14.8,87,15.08,0.0,1010.02,310.6
2019-09-15 03:40,50.630465,-96.98078,12.6,14.9,143,983.75,14.7,87,15.08,0.0,1009.98,310.6
2019-09-15 03:50,50.630465,-96.9807816666667,12.6,14.7,142,983.71,14.7,89,15.07,0.0,1009.95,310.6
2019-09-15 04:00,50.630465,-96.9807816666667,13.2,17.1,146,983.72,14.6,88,15.05,0.0,1009.99,356.8
2019-09-15 04:10,50.630465,-96.9807816666667,13.0,16.5,142,983.67,14.5,89,15.03,0.0,1009.94,356.8
2019-09-15 04:20,50.630465,-96.9807816666667,13.1,15.9,138,983.51,14.4,89,15.01,0.0,1009.78,356.8
2019-09-15 04:30,50.630465,-96.9807816666667,13.0,15.3,140,983.42,14.2,90,14.98,0.0,1009.71,356.8
2019-09-15 04:40,50.630465,-96.9807816666667,12.4,14.5,141,983.41,14.1,92,14.97,0.0,1009.70,356.8
2019-09-15 04:50,50.630465,-96.9807816666667,11.2,13.0,145,983.35,14.1,93,14.95,0.0,1009.64,356.8
2019-09-15 05:00,50.630465,-96.9807816666667,10.1,12.8,150,983.26,14.0,94,14.92,0.0,1009.56,360.0
2019-09-15 05:10,50.6304633333333,-96.9807816666667,9.9,12.9,151,983.24,14.1,93,14.88,0.0,1009.55,360.0
2019-09-15 05:20,50.6304633333333,-96.9807833333333,10.3,14.1,155,983.23,14.2,92,14.86,0.0,1009.55,360.0
2019-09-15 05:30,50.630445,-96.9808033333333,10.7,14.0,155,983.21,14.2,91,14.86,0.0,1009.54,360.0
2019-09-15 05:40,50.6304516666667,-96.9807883333333,10.4,13.5,156,983.19,14.1,93,14.86,0.0,1009.52,360.0
2019-09-15 05:50,50.6304316666667,-96.980765,10.9,13.9,161,983.10,14.0,93,14.85,0.0,1009.44,360.0
2019-09-15 06:00,50.6304466666667,-96.98079,11.3,15.3,155,983.00,13.9,93,14.86,0.0,1009.34,360.0
2019-09-15 06:10,50.6304466666667,-96.9807933333333,11.3,14.5,160,983.04,13.8,94,14.86,0.0,1009.39,360.0
2019-09-15 06:20,50.630445,-96.980795,12.7,15.4,163,983.03,13.7,94,14.87,0.0,1009.39,360.0
2019-09-15 06:30,50.630445,-96.980795,11.8,15.0,161,982.97,13.6,95,14.87,0.0,1009.34,360.0
2019-09-15 06:40,50.630445,-96.980795,10.6,14.2,159,983.00,13.5,95,14.87,0.0,1009.38,360.0
2019-09-15 06:50,50.6304466666667,-96.9807933333333,11.2,14.0,158,983.02,13.5,95,14.92,0.0,1009.40,360.0
2019-09-15 07:00,50.6304466666667,-96.98079,10.5,14.2,157,982.88,13.4,96,14.96,0.0,1009.25,360.0
2019-09-15 07:10,50.6304483333333,-96.9807916666667,10.4,13.0,155,982.85,13.4,98,14.96,0.0,1009.22,360.0
2019-09-15 07:20,50.6304466666667,-96.9807816666667,10.1,13.3,156,982.75,13.4,99,14.95,0.0,1009.13,360.0
2019-09-15 07:30,50.6304533333333,-96.9807883333333,10.0,13.0,155,982.69,13.3,99,14.94,0.0,1009.06,360.0
2019-09-15 07:40,50.6304483333333,-96.980785,9.0,11.6,165,982.77,13.3,99,14.93,0.0,1009.15,360.0
2019-09-15 07:50,50.63045,-96.9807866666667,8.7,10.7,168,982.75,13.2,99,14.93,0.0,1009.14,360.0
2019-09-15 08:00,50.6304483333333,-96.9807833333333,9.4,11.4,168,982.71,13.2,99,14.93,0.0,1009.11,360.0
2019-09-15 08:10,50.6304466666667,-96.9807816666667,9.8,11.3,170,982.63,13.2,99,14.91,0.0,1009.03,360.0
2019-09-15 08:20,50.6304466666667,-96.9807833333333,9.8,11.9,171,982.66,13.1,99,14.86,0.0,1009.07,360.0
2019-09-15 08:30,50.6304466666667,-96.9807833333333,9.2,10.9,170,982.60,12.9,99,14.84,0.0,1009.02,360.0
2019-09-15 08:40,50.6304416666667,-96.98078,8.9,11.1,168,982.45,12.8,99,14.82,0.0,1008.87,360.0
2019-09-15 08:50,50.6304466666667,-96.9807816666667,8.9,11.3,166,982.50,12.8,99,14.81,0.0,1008.93,360.0
2019-09-15 09:00,50.6304483333333,-96.9807833333333,9.0,10.7,169,982.42,12.8,99,14.81,0.0,1008.85,90.0
2019-09-15 09:10,50.6304483333333,-96.98078,9.0,10.7,171,982.42,12.7,100,14.80,0.0,1008.86,90.0
2019-09-15 09:20,50.6304483333333,-96.9807766666667,9.0,10.4,172,982.52,12.6,100,14.79,0.0,1008.96,90.0
2019-09-15 09:30,50.6304466666667,-96.9807766666667,9.1,10.5,173,982.49,12.5,100,14.80,0.0,1008.93,90.0
2019-09-15 09:40,50.630445,-96.9807766666667,9.8,11.7,174,982.51,12.4,100,14.80,0.0,1008.96,90.0
2019-09-15 09:50,50.6304466666667,-96.9807766666667,9.6,11.9,175,982.53,12.3,100,14.78,0.0,1008.99,90.0
2019-09-15 10:00,50.6304466666667,-96.9807766666667,9.0,11.2,175,982.53,12.1,100,14.78,0.0,1009.00,90.0
2019-09-15 10:10,50.6304466666667,-96.980775,8.7,10.4,177,982.64,11.9,100,14.81,0.0,1009.12,90.0
2019-09-15 10:20,50.6304566666667,-96.9807616666667,8.1,9.7,177,982.61,11.8,100,14.86,0.0,1009.11,90.0
2019-09-15 10:30,50.630455,-96.980765,8.4,10.0,178,982.49,11.6,100,14.88,0.0,1009.00,90.0
2019-09-15 10:40,50.630455,-96.9807666666667,7.7,8.9,178,982.52,11.6,100,14.89,0.0,1009.03,90.0
2019-09-15 10:50,50.630435,-96.98076,6.7,9.6,183,982.47,11.6,100,14.86,0.0,1008.99,90.0
2019-09-15 11:00,50.6304483333333,-96.98077,6.8,8.9,187,982.45,11.6,100,14.81,0.0,1008.96,90.0
2019-09-15 11:10,50.6304533333333,-96.9807716666667,6.4,8.1,187,982.44,11.7,100,14.78,0.0,1008.96,90.0
2019-09-15 11:20,50.6304566666667,-96.9807716666667,7.6,9.9,183,982.46,11.7,100,14.76,0.0,1008.98,90.0
2019-09-15 11:30,50.6304566666667,-96.9807716666667,7.8,9.7,184,982.59,11.8,100,14.74,0.0,1009.11,90.0
2019-09-15 11:40,50.6304583333333,-96.9807733333333,7.9,9.9,185,982.63,11.8,100,14.73,0.0,1009.16,90.0
2019-09-15 11:50,50.6304583333333,-96.9807733333333,7.3,9.1,185,982.61,11.7,100,14.73,0.0,1009.15,90.0
2019-09-15 12:00,50.6304616666667,-96.9807983333333,7.5,9.8,190,982.60,11.7,100,14.73,0.0,1009.15,356.8
2019-09-15 12:10,50.6304616666667,-96.98079,7.6,9.3,192,982.54,11.7,100,14.74,0.0,1009.10,356.8
2019-09-15 12:20,50.6304483333333,-96.9807866666667,8.6,11.4,189,982.59,11.6,100,14.75,0.0,1009.16,356.8
2019-09-15 12:30,50.6304516666667,-96.9807833333333,8.2,10.0,189,982.59,11.7,100,14.76,0.0,1009.16,356.8
2019-09-15 12:40,50.6304516666667,-96.9807766666667,7.7,11.0,190,982.64,11.7,100,14.76,0.0,1009.21,356.8
2019-09-15 12:50,50.630445,-96.9807716666667,7.5,9.4,188,982.78,11.7,100,14.76,0.0,1009.36,356.8
2019-09-15 13:00,50.6304466666667,-96.9807733333333,8.1,10.9,190,982.79,11.7,100,14.76,0.0,1009.36,0.0
2019-09-15 13:10,50.630455,-96.9807933333333,7.2,8.8,196,982.87,11.6,100,14.75,0.0,1009.45,0.0
2019-09-15 13:20,50.630455,-96.9807833333333,7.3,9.0,191,982.84,11.6,100,14.75,0.0,1009.41,0.0
2019-09-15 13:30,50.6304566666667,-96.9807783333333,6.2,8.6,193,982.78,11.7,100,14.74,0.0,1009.35,0.0
2019-09-15 13:40,50.6304566666667,-96.9807783333333,5.7,7.7,195,982.83,11.9,100,14.73,0.0,1009.39,0.0
2019-09-15 13:50,50.6304483333333,-96.9807916666667,6.0,7.6,188,982.79,12.2,100,14.73,0.0,1009.34,0.0
2019-09-15 14:00,50.6304466666667,-96.98078,6.1,9.3,191,982.83,12.4,99,14.73,0.0,1009.37,270.0
2019-09-15 14:10,50.630445,-96.9807733333333,5.4,7.3,191,982.92,12.6,99,14.74,0.0,1009.45,270.0
2019-09-15 14:20,50.63044,-96.98077,6.1,8.0,187,982.98,12.9,98,14.74,0.0,1009.51,270.0
2019-09-15 14:30,50.630465,-96.9808216666667,6.5,9.3,188,983.05,13.1,97,14.74,0.0,1009.56,270.0
2019-09-15 14:40,50.6304516666667,-96.9807866666667,4.9,7.3,194,983.06,13.4,94,14.74,0.0,1009.55,270.0
2019-09-15 14:50,50.630425,-96.9807666666667,5.6,8.0,193,982.98,13.7,92,14.79,0.0,1009.46,270.0
2019-09-15 15:00,50.6304533333333,-96.9807833333333,6.1,8.0,188,982.99,13.9,92,14.82,0.0,1009.46,167.4
2019-09-15 15:10,50.630455,-96.9807866666667,6.2,8.0,188,983.02,14.3,89,14.82,0.0,1009.47,167.4
2019-09-15 15:20,50.6304566666667,-96.9807833333333,5.2,6.5,188,983.11,14.7,88,14.83,0.0,1009.55,167.4
2019-09-15 15:30,50.6304583333333,-96.980785,4.2,5.6,196,983.14,15.1,85,14.87,0.0,1009.54,167.4
2019-09-15 15:40,50.63046,-96.9807816666667,4.9,6.7,186,983.09,15.4,85,14.91,0.0,1009.47,167.4
2019-09-15 15:50,50.6304616666667,-96.9807833333333,4.8,6.2,195,983.18,15.9,81,14.94,0.0,1009.53,167.4
2019-09-15 16:00,50.6304816666667,-96.9807716666667,3.9,5.3,190,983.23,16.4,79,14.95,0.0,1009.54,18.9
2019-09-15 16:10,50.6304666666667,-96.98078,5.2,6.2,180,983.19,16.9,77,14.97,0.0,1009.48,18.9
2019-09-15 16:20,50.6304633333333,-96.980785,5.6,6.6,172,983.18,17.3,76,15.04,0.0,1009.43,18.9
2019-09-15 16:30,50.6304616666667,-96.98078,6.2,7.5,147,983.16,17.2,78,15.08,0.0,1009.40,18.9
2019-09-15 16:40,50.630465,-96.9807816666667,6.9,8.3,144,983.23,16.9,79,15.09,0.0,1009.47,18.9
2019-09-15 16:50,50.630465,-96.9807766666667,6.9,8.6,130,983.26,17.1,84,15.11,0.0,1009.49,18.9
2019-09-15 17:00,50.6304633333333,-96.980775,7.0,8.3,130,983.33,16.7,90,15.11,0.0,1009.56,3.2
2019-09-15 17:10,50.63046,-96.980775,7.3,8.2,135,983.35,16.9,86,15.11,0.0,1009.55,3.2
2019-09-15 17:20,50.6304483333333,-96.9808266666667,6.4,7.5,121,983.35,17.1,92,15.14,0.0,1009.53,3.2
2019-09-15 17:30,50.63046,-96.9807933333333,7.8,9.8,123,983.29,17.3,90,15.17,0.0,1009.44,3.2
2019-09-15 17:40,50.6304283333333,-96.9807666666667,8.7,10.1,126,983.28,17.4,89,15.17,0.0,1009.40,3.2
2019-09-15 17:50,50.6304483333333,-96.9807866666667,8.1,9.9,128,983.32,17.2,91,15.20,0.0,1009.43,3.2
2019-09-15 18:00,50.6304533333333,-96.980785,8.8,9.6,123,983.36,17.1,94,15.26,0.0,1009.45,0.0
2019-09-15 18:10,50.6304533333333,-96.98078,8.5,9.6,125,983.30,17.1,94,15.31,0.0,1009.37,0.0
2019-09-15 18:20,50.6304666666667,-96.9808083333333,9.6,10.9,124,983.20,17.2,93,15.37,0.0,1009.27,0.0
2019-09-15 18:30,50.63046,-96.9807916666667,10.3,11.3,129,983.12,17.5,89,15.38,0.0,1009.19,0.0
2019-09-15 18:40,50.63046,-96.98079,9.6,10.8,125,983.08,17.6,90,15.36,0.0,1009.13,0.0
2019-09-15 18:50,50.63046,-96.98079,10.1,12.1,119,983.13,17.5,92,15.36,0.0,1009.21,0.0
2019-09-15 19:00,50.6304483333333,-96.980795,10.3,11.7,117,983.11,17.5,92,15.33,0.0,1009.18,212.5
2019-09-15 19:10,50.630455,-96.9807816666667,11.2,12.6,120,983.02,17.7,89,15.34,0.0,1009.07,212.5
2019-09-15 19:20,50.630475,-96.98079,11.4,12.6,121,982.93,17.8,89,15.35,0.0,1008.97,212.5
2019-09-15 19:30,50.63046,-96.980805,10.8,13.2,124,982.98,17.9,87,15.41,0.0,1009.01,212.5
2019-09-15 19:40,50.63047,-96.9808,7.4,9.6,126,983.04,17.9,86,15.40,0.0,1009.07,212.5
2019-09-15 19:50,50.63047,-96.9807766666667,7.8,10.0,133,983.01,17.8,84,15.41,0.0,1009.05,212.5
2019-09-15 20:00,50.63046,-96.9807866666667,6.1,7.7,148,983.02,17.9,80,15.47,0.0,1009.06,246.4
2019-09-15 20:10,50.6304566666667,-96.9807833333333,7.5,12.0,154,982.98,18.8,72,15.48,0.0,1008.96,246.4
2019-09-15 20:20,50.6304566666667,-96.9807883333333,9.3,12.0,148,982.88,19.2,70,15.45,0.0,1008.84,246.4
2019-09-15 20:30,50.6304616666667,-96.98079,9.9,12.3,147,982.82,19.8,65,15.46,0.0,1008.75,246.4
2019-09-15 20:40,50.63047,-96.98078,6.9,8.9,137,982.82,19.8,67,15.62,0.0,1008.75,246.4
2019-09-15 20:50,50.630465,-96.980805,6.8,8.2,136,982.89,19.4,71,15.74,0.0,1008.84,246.4
2019-09-15 21:00,50.6304616666667,-96.98078,6.4,8.0,127,982.91,19.6,71,15.81,0.0,1008.85,360.0
2019-09-15 21:10,50.6304616666667,-96.98078,8.2,11.0,119,982.80,19.6,74,15.81,0.0,1008.72,360.0
2019-09-15 21:20,50.63046,-96.98078,9.5,10.7,119,982.68,19.4,75,15.82,0.0,1008.60,360.0
2019-09-15 21:30,50.6304583333333,-96.98078,8.7,10.9,123,982.72,19.4,75,15.82,0.0,1008.65,360.0
2019-09-15 21:40,50.6304583333333,-96.9807816666667,7.2,9.6,129,982.76,19.9,69,15.87,0.0,1008.67,360.0
2019-09-15 21:50,50.6304316666667,-96.9807716666667,8.1,10.5,121,982.69,19.9,72,15.84,0.0,1008.59,360.0
2019-09-15 22:00,50.6304566666667,-96.9807833333333,8.5,10.8,118,982.61,20.1,70,15.77,0.0,1008.46,60.8
2019-09-15 22:10,50.6304533333333,-96.980785,9.3,11.0,129,982.58,20.0,68,15.75,0.0,1008.42,60.8
2019-09-15 22:20,50.6304633333333,-96.9807966666667,7.4,9.7,131,982.62,20.0,69,15.70,0.0,1008.43,60.8
2019-09-15 22:30,50.63046,-96.980785,5.4,8.3,141,982.61,19.7,67,15.63,0.0,1008.44,60.8
2019-09-15 22:40,50.6304683333333,-96.9808016666667,8.9,11.6,135,982.52,20.5,60,15.57,0.0,1008.32,60.8
2019-09-15 22:50,50.63046,-96.98079,8.3,11.0,138,982.52,20.9,55,15.59,0.0,1008.30,60.8
2019-09-15 23:00,50.63046,-96.98079,5.5,8.5,145,982.53,20.3,61,15.61,0.0,1008.33,0.0
2019-09-15 23:10,50.63046,-96.9807866666667,6.1,9.9,158,982.48,19.7,65,15.56,0.0,1008.33,0.0
2019-09-15 23:20,50.6304283333333,-96.980785,5.7,7.3,192,982.58,20.0,62,15.52,0.0,1008.41,0.0
2019-09-15 23:30,50.6304566666667,-96.980765,6.6,9.1,177,982.60,22.5,48,15.53,0.0,1008.29,0.0
2019-09-15 23:40,50.6304566666667,-96.9807666666667,5.3,7.9,166,982.66,23.6,46,15.57,0.0,1008.31,0.0
2019-09-15 23:50,50.6304666666667,-96.9807716666667,4.8,6.4,155,982.70,23.4,45,15.62,0.0,1008.35,0.0
